Погода в Щебзаводе

Россия / Кемеровская область (Кузбасс)     54°11′48″N   86°10′37″E
темп.,
°C
ветер,
м/с
пор.,
м/с
влажн.,
%
обл.,
%
осадки,
мм/ч
давл.,
гПа
погр.,
м
19 апреля, пн
пн1901:00+4юз71582100 0.5 1004683
04:00+4юз81792100 2.2 1001928
07:00+1з101881100 3.2 10031231
10:00−4зсз101472100 0.1 10101309
13:00−3сз81160100 0.2 10171600
16:00−3сз6763100 0.1 10211577
19:00−3сз4559100 0.3 10221195
22:00−6ссз4580100 0.3 1024679
20 апреля, вт
вт2001:00−7с3482100 0.8 1024631
04:00−8с3381100 0.4 1025651
07:00−8ссз346299 0.8 1026949
10:00−6сз3449100 0.0 10261363
13:00−4сз3447100 0.1 10261617
16:00−2сз3443100 0.0 10251804
19:00−2ссз3442100 0.1 10251489
22:00−4сз1259100 0.0 102667
21 апреля, ср
ср2101:00−5зюз24705 0.0 1026169
04:00−6ююз236871 0.0 1025126
07:00−5ююз2459100 0.0 1025230
10:00−3ююз2345100 0.0 1025997
13:000ю1238100 0.0 10241646
16:00+1в2138100 0.0 10231657
19:000всв224136 0.0 10241397
22:00−3св277577 0.0 1027189
22 апреля, чт
чт2201:00−4ссз257828 0.0 1027144
04:00−5ссз25796 0.0 1029208
07:00−4с47615 0.0 1031323
10:000ссв57445 0.0 1033929
13:00+2ссв6645100 0.0 10341906
16:00+2ссв6753100 0.2 10361467
19:00+1ссв686381 0.4 10381087
22:00−1ссв4117856 0.0 1040436
23 апреля, пт
пт2301:00−2ссв39785 0.0 1041275
04:00−3с37835 0.0 1041261
07:00−3ссв49775 0.0 1041362
10:00+2св57535 0.0 1040808
13:00+5св674799 0.0 10381598
16:00+6св7946100 0.0 10361835
19:00+5ссв61063100 0.1 1036854
22:00+2ссв51275100 0.0 1036485